Weather History for KLFK - January, 2014

Change the Weather History Date:

Wednesday, January 15, 2014

  Actual Average Record
Temperature  
Mean Temperature 46 °F 49 °F  
Max Temperature 58 °F 60 °F 81 °F (1952)
Min Temperature 33 °F 38 °F 20 °F (1979)
Degree Days  
Heating Degree Days 19 16  
Month to date heating degree days 258 252  
Since 1 July heating degree days 1129 1030  
Cooling Degree Days 0 0  
Month to date cooling degree days 0 0  
Year to date cooling degree days 0 0  
Moisture  
Dew Point 24 °F    
Average Humidity 48    
Maximum Humidity 75    
Minimum Humidity 21    
Precipitation  
Precipitation 0.00 in 0.13 in 2.05 in (1924)
Month to date precipitation 0.61 1.94  
Year to date precipitation 0.61 1.94  
Snow  
Snow 0.00 in - - ()
Month to date snowfall 0.0  
Since 1 July snowfall T  
Snow Depth 0.00 in    
Sea Level Pressure  
Sea Level Pressure 30.28 in    
Wind  
Wind Speed 6 mph (NNW)    
Max Wind Speed 17 mph    
Max Gust Speed 23 mph    
Visibility 10 miles    
Events      
T = Trace of Precipitation, MM = Missing Value Source: NWS Daily Summary

Daily Weather History Graph

Daily Weather History Graph

Search for Another Location

Airport or City:

Trip Planner

Search our weather history database for the weather conditions in past years. The results will help you decide how hot, cold, wet, or windy it might be!

Date:

Astronomy

Jan. 15, 2014 Rise Set
Actual Time 7:18 AM CST 5:39 PM CST
Civil Twilight 6:52 AM CST 6:05 PM CST
Nautical Twilight 6:22 AM CST 6:34 PM CST
Astronomical Twilight 5:53 AM CST 7:04 PM CST
Moon 5:33 PM CST (1/15) 6:37 AM CST (1/15)
Length of Visible Light 11h 13m
Length of Day
10h 20m
Full, 100% of the Moon is Illuminated
Jan 15
Full
Jan 15
Full
Jan 23
Last Quarter
Jan 30
New
Feb 6
First Quarter

Hourly Weather History & Observations

Time (CST) Temp. Windchill Dew Point Humidity Pressure Visibility Wind Dir Wind Speed Gust Speed Precip Events Conditions
12:53 AM 51.1 °F - 28.9 °F 43% 30.24 in 10.0 mi NNW 9.2 mph - N/A   Clear
1:53 AM 48.9 °F - 27.0 °F 43% 30.27 in 10.0 mi NNW 9.2 mph - N/A   Clear
2:53 AM 46.9 °F - 26.1 °F 44% 30.29 in 10.0 mi NNW 8.1 mph - N/A   Clear
3:53 AM 44.1 °F 40.8 °F 23.0 °F 43% 30.32 in 10.0 mi NNW 5.8 mph - N/A   Clear
4:53 AM 37.9 °F - 23.0 °F 55% 30.32 in 10.0 mi Calm Calm - N/A   Clear
5:53 AM 37.9 °F - 21.9 °F 53% 30.33 in 10.0 mi Calm Calm - N/A   Clear
6:53 AM 35.1 °F - 23.0 °F 61% 30.35 in 10.0 mi Calm Calm - N/A   Clear
7:53 AM 37.0 °F - 23.0 °F 57% 30.35 in 10.0 mi Calm Calm - N/A   Clear
8:53 AM 42.1 °F 39.2 °F 24.1 °F 49% 30.38 in 10.0 mi WNW 4.6 mph - N/A   Clear
9:53 AM 48.0 °F - 23.0 °F 37% 30.38 in 10.0 mi NW 9.2 mph - N/A   Clear
10:53 AM 51.1 °F - 23.0 °F 33% 30.36 in 10.0 mi Variable 6.9 mph - N/A   Clear
11:53 AM 54.0 °F - 21.9 °F 29% 30.33 in 10.0 mi WNW 11.5 mph 17.3 mph N/A   Clear
12:53 PM 55.9 °F - 19.9 °F 25% 30.29 in 10.0 mi WNW 11.5 mph 21.9 mph N/A   Clear
1:53 PM 57.0 °F - 18.0 °F 22% 30.27 in 10.0 mi NW 11.5 mph 20.7 mph N/A   Clear
2:53 PM 57.9 °F - 17.1 °F 20% 30.25 in 10.0 mi NW 11.5 mph 18.4 mph N/A   Clear
3:53 PM 57.0 °F - 19.0 °F 23% 30.24 in 10.0 mi North 13.8 mph 17.3 mph N/A   Clear
4:53 PM 55.0 °F - 18.0 °F 23% 30.24 in 10.0 mi NNW 6.9 mph - N/A   Clear
5:53 PM 52.0 °F - 19.9 °F 28% 30.23 in 10.0 mi Calm Calm - N/A   Clear
6:53 PM 43.0 °F - 28.9 °F 58% 30.23 in 10.0 mi Calm Calm - N/A   Clear
7:53 PM 39.0 °F 35.7 °F 30.0 °F 70% 30.23 in 10.0 mi East 4.6 mph - N/A   Clear
8:53 PM 36.0 °F - 28.9 °F 76% 30.22 in 10.0 mi Calm Calm - N/A   Clear
9:53 PM 35.1 °F 32.2 °F 27.0 °F 72% 30.22 in 10.0 mi East 3.5 mph - N/A   Clear
10:53 PM 36.0 °F 33.3 °F 28.0 °F 73% 30.20 in 10.0 mi East 3.5 mph - N/A   Clear
11:53 PM 36.0 °F - 27.0 °F 70% 30.19 in 10.0 mi Calm Calm - N/A   Clear